Regional Weather Roundup
Issued by NWS

Home | Current Version | Previous Version | Text Only | Print | Product List | Glossary Off
Versions: 1 2 3 4 5 6 7 8 9 10 11 12 13 14 15 16 17 18 19 20 21 22 23 24 25 26 27

000
ASUS45 KBOU 240607
RWRCO

WEATHER ROUNDUP FOR COLORADO
NATIONAL WEATHER SERVICE DENVER/BOULDER CO
1200 AM MDT WED AUG 24 2016

NOTE: "FAIR" INDICATES FEW OR NO CLOUDS BELOW 12000 FEET WITH NO
SIGNIFICANT WEATHER AND/OR OBSTRUCTIONS TO VISIBILITY.

COZ001>005-013-030-031-240700-
...NORTHWEST COLORADO...

CITY           SKY/WX    TMP DP  RH WIND       PRES   REMARKS
CRAIG          MOCLDY    56  45  66 CALM      30.25S
HAYDEN         MOCLDY    55  43  62 E6        30.27S
MEEKER         FAIR      53  47  79 E5        30.26F
MOUNT WERNER   NOT AVBL
STEAMBOAT SPGS FAIR      53  46  75 S5        30.29R
WALDEN         FAIR      50  36  57 SE5       30.37S
$$

COZ006>008-011-240700-
...WEST CENTRAL VALLEYS...

CITY           SKY/WX    TMP DP  RH WIND       PRES   REMARKS
GRAND JUNCTION FAIR      67  49  52 SE15G26   30.19S
MONTROSE       LGT RAIN  57  51  80 S5        30.29F
EAGLE          CLOUDY    61  46  59 SE8       30.32F
RIFLE          FAIR      58  55  90 CALM      30.24F
DELTA          NOT AVBL
NUCLA          FAIR      55  54  94 SE7       30.29F
$$

COZ017>023-064>068-240700-
...SOUTHWEST COLORADO...

CITY           SKY/WX    TMP DP  RH WIND       PRES   REMARKS
DURANGO        CLOUDY    53  47  79 CALM      30.30S
CORTEZ         CLOUDY    54  53  97 CALM      30.28S
PAGOSA SPRINGS MOCLDY    48  47  96 CALM      30.34F
TELLURIDE      LGT RAIN  46  45  97 CALM      30.45S
WOLF CREEK PAS CLOUDY    36  36 100 CALM      30.58F
$$

COZ009-010-012-014-032>034-037-058>063-240700-
...CENTRAL COLORADO...

CITY           SKY/WX    TMP DP  RH WIND       PRES   REMARKS
ASPEN          LGT RAIN  50  48  93 SW5       30.38F
BUENA VISTA    LGT RAIN  48  43  84 N9        30.40S
COPPER MTN     SNOW      37  34  87 NW6       30.59S VSB<1/4
BERTHOUD PASS  MIX PCPN  32  19  59 E7        30.62F WCI  26
COTTONWOOD PAS DRIZZLE   46  41  81 E3        30.48F
GUNNISON       CLOUDY    50  45  81 CALM      30.40F
KREMMLING      DRIZZLE   54  45  71 CALM      30.39S
LEADVILLE      LGT RAIN  41  39  93 CALM      30.48F
MONARCH PASS   FOG       36  36 100 E14       30.66S VSB<1/4
SALIDA         CLOUDY    52  49  87 CALM      30.46S
SUNLIGHT       CLOUDY    43  39  87 W6        30.52F
WILKERSON PASS DRIZZLE   37  37 100 S8        30.58S
$$

COZ069>075-240700-
...SAN LUIS VALLEY/SANGRE DE CRISTO MOUNTAINS...

CITY           SKY/WX    TMP DP  RH WIND       PRES   REMARKS
ALAMOSA        FAIR      48  47  96 W3        30.33F
LA VETA PASS   MOCLDY    43  41  93 SE3       30.48S FOG
SAGUACHE       CLOUDY    52  46  82 SW7       30.36S
$$

COZ035-036-038>040-240700-
...NORTHERN COLORADO FRONT RANGE...

CITY           SKY/WX    TMP DP  RH WIND       PRES   REMARKS
DENVER INTL AP CLOUDY    67  41  38 W9        30.18R
DMNS CITY PARK   N/A     66  42  41 W2G9      30.18R
AURORA         MOCLDY    64  44  49 SW8       30.21R
FRONT RANGE AP NOT AVBL
ERIE MUNI ARPT MOCLDY    69  39  34 W16G24    30.16F
BOULDER MUN AP MOCLDY    70  39  32 W15G21    30.17F
CENTENNIAL     CLOUDY    63  43  48 SW13      30.23R
BROOMFIELD     FAIR      66  41  39 NW16G26   30.18F
FORT COLLINS   FAIR      72  39  30 SW17G24   30.12F
LONGMONT       MOCLDY    71  41  33 W10       30.17F
$$

COZ041-046-047-076>085-087-088-240700-
...PIKES PEAK/PALMER DIVIDE AND SOUTHERN FOOTHILLS...

CITY           SKY/WX    TMP DP  RH WIND       PRES   REMARKS
COLO. SPRINGS  CLOUDY    62  45  53 NW12      30.24F
A. F. ACADEMY  FAIR      60  42  51 W12       30.24F
SCHRIEVER AFB  NOT AVBL
ELLICOTT       NOT AVBL
FALCON         CLOUDY    59  43  55 W16       30.26F
FORT CARSON    NOT AVBL
LIMON          FAIR      63  41  44 NW5       30.18R
MONUMENT HILL  CLOUDY    59  41  51 SW12G25   30.28F
TRINIDAD       FAIR      59  52  77 NW9       30.22F
$$

COZ042>045-048>051-090-091-240700-
...NORTHEAST COLORADO...

CITY           SKY/WX    TMP DP  RH WIND       PRES   REMARKS
GREELEY ARPT   FAIR      70  45  40 W12       30.13S
AKRON          FAIR      67  36  31 SE7       30.12S
BURLINGTON     FAIR      67  41  38 NE10      30.06S
WRAY           FAIR      64  41  42 E3        30.05R
STERLING       FAIR      68  43  40 CALM      30.08S
HOLYOKE        FAIR      63  43  48 N6        30.07R
FORT MORGAN    FAIR      67  40  37 CALM      30.13R
$$

COZ086-089-092>099-240700-
...SOUTHEAST COLORADO...

CITY           SKY/WX    TMP DP  RH WIND       PRES   REMARKS
PUEBLO         FAIR      67  51  56 NW18G29   30.13F
LA JUNTA       FAIR      69  52  54 N14       30.13F
LAMAR          MOCLDY    68  54  60 N12       30.03F
SPRINGFIELD      N/A     69  51  52 NW18      30.05R
$$




USA.gov is the U.S. government's official web portal to all federal, state and local government web resources and services.